Tracking 28790 objects as of 19-Apr-2024
HD Live streaming from Space Station
objects crossing your sky now

COSMOS 1235

Track COSMOS 1235 now!
10-day predictions
COSMOS 1235 is classified as:


NORAD ID: 12114
Int'l Code: 1980-102H
Perigee: 1,420.0 km
Apogee: 1,471.5 km
Inclination: 74.0 °
Period: 114.6 minutes
Semi major axis: 7816 km
RCS: 0.7012 m2 (medium)
Launch date: December 23, 1980
Source: Commonwealth of Independent States (former USSR) (CIS)
Launch site: PLESETSK MISSILE AND SPACE COMPLEX (PKMTR)
Your satellite tracking list
Your tracking list is empty




NASA's NSSDC Master Catalog

Two Line Element Set (TLE):
1 12114U 80102H   24109.92008737 -.00000009  00000-0  42109-4 0  9992
2 12114  73.9981  10.7163 0032905 216.9545 218.8066 12.56213046986483
Source of the keplerian elements: AFSPC